"Pseudo-MPEC" for P22oDk3

Created 2026 Jul 26 18:35:14 UT using Find_Orb

Click here for an explanation of pseudo-MPECs

 
 Astrometry: 
     P22oDk3*0C2026 07 25.51588323 30 30.493+19 33 01.23   ~7PE5 22.61wXNEOCPF52
     P22oDk3 0C2026 07 25.52752023 30 31.014+19 33 20.04   ~7PE5 22.35wXNEOCPF52
     P22oDk3 0C2026 07 25.53939023 30 31.561+19 33 38.92   ~7PE5 22.03wXNEOCPF52
     P22oDk3 0C2026 07 25.55207623 30 32.136+19 33 59.50   ~7PE5 22.34wXNEOCPF52
     P22oDk3 0C2026 07 25.59999823 30 34.276+19 35 16.18   ~7PLo 22.77GVNEOCPF52
     P22oDk3 0C2026 07 25.60063223 30 34.309+19 35 17.21   ~7PLo 22.10GVNEOCPF52
     P22oDk3 0C2026 07 26.50171523 31 18.741+19 59 16.04   ~7QGZ 21.72GVNEOCPF52
     P22oDk3 0C2026 07 26.51136023 31 19.155+19 59 31.50   ~7QGZ 21.43GVNEOCPF52

Station data:
(F52) Pan-STARRS 2, Haleakala  (N20.707382 W156.255910)  US/Hawaii.
   Observers J. Herman, T. Lowe, P. Minguez, A. Schultz, I. Smith. Measurers
   K. Chambers, T. de Boer, J. Fairlamb, H. Gao, M. Huber, C.-C. Lin, E.
   Magnier, Y. Ramanjooloo, R. Wainscoat, R. Weryk. 1.8-m Ritchey-Chrétien +
   CCD.

Orbital elements:  P22oDk3
   Perihelion 2026 Nov 28.393588 +/- 54 TT =  9:26:46.0 (JD 2461372.893588)
Epoch 2026 Jul 26.0 TT = JDT 2461247.5   Earth MOID: 0.2481      AutoNEOCP
M 305.059374724 +/- 18              (J2000 ecliptic)
n   0.438145410 +/- 0.109           Peri.  145.962513 +/- 38
a   1.716816471 +/- 0.283           Node   269.251293 +/- 3.9
e   0.29364133 +/- 0.115            Incl.   12.232460 +/- 1.2
P   2.249/821.630d         H 20.38  G  0.15   U 11.3  SR
q 1.212688194 +/- 0.112    Q 2.220944748 +/- 1.05
From 8 observations 2026 July 25-26 (23.9 hr); mean residual 0".20
Residuals in arcseconds: 
260725 F52  .12-  .35-    260725 F52  .11+  .05+    260726 F52  .06+  .00     
260725 F52  .16-  .16-    260725 F52  .05+  .38+    260726 F52  .07-  .06-    
260725 F52  .03+  .26-    260725 F52  .11+  .40+    

Ephemerides (geocentric):
Date (UTC) HH   RA             Dec           delta  r     elong  mag " sig PA
---- --------  ------------   ------------  ------ ------ -----  --- --------
2026 07 26 19  23 31 32.360   +20 07 00.97  .77339 1.5481 119.2 22.2 2.71 139
2026 07 26 20  23 31 34.354   +20 08 07.77  .77302 1.5480 119.3 22.2 3.15 140
2026 07 26 21  23 31 36.345   +20 09 14.59  .77264 1.5478 119.3 22.2 3.61 141
2026 07 26 22  23 31 38.335   +20 10 21.41  .77227 1.5476 119.3 22.2 4.10 142
2026 07 26 23  23 31 40.322   +20 11 28.26  .77189 1.5474 119.3 22.2 4.62 143
2026 07 27 00  23 31 42.307   +20 12 35.11  .77151 1.5473 119.3 22.2 5.16 144
2026 07 27 01  23 31 44.290   +20 13 41.98  .77114 1.5471 119.3 22.2 5.72 144
2026 07 27 02  23 31 46.270   +20 14 48.87  .77076 1.5469 119.4 22.2 6.31 145
2026 07 27 03  23 31 48.248   +20 15 55.76  .77039 1.5468 119.4 22.2 6.92 145
2026 07 27 04  23 31 50.224   +20 17 02.67  .77001 1.5466 119.4 22.2 7.55 146
2026 07 27 05  23 31 52.198   +20 18 09.59  .76964 1.5464 119.4 22.2 8.21 146
2026 07 27 06  23 31 54.170   +20 19 16.53  .76926 1.5463 119.4 22.2 8.89 146
2026 07 27 07  23 31 56.139   +20 20 23.47  .76889 1.5461 119.5 22.2 9.60 147
2026 07 27 08  23 31 58.106   +20 21 30.43  .76852 1.5459 119.5 22.2 10.3 147
2026 07 27 09  23 32 00.071   +20 22 37.41  .76814 1.5458 119.5 22.2 11.1 147
2026 07 27 10  23 32 02.033   +20 23 44.39  .76777 1.5456 119.5 22.2 11.9 147
2026 07 27 11  23 32 03.993   +20 24 51.39  .76739 1.5454 119.5 22.2 12.7 147
2026 07 27 12  23 32 05.951   +20 25 58.41  .76702 1.5453 119.6 22.2 13.5 148
2026 07 27 13  23 32 07.907   +20 27 05.43  .76665 1.5451 119.6 22.2 14.3 148
2026 07 27 14  23 32 09.861   +20 28 12.47  .76627 1.5449 119.6 22.2 15.2 148
2026 07 27 15  23 32 11.812   +20 29 19.52  .76590 1.5448 119.6 22.2 16.1 148
2026 07 27 16  23 32 13.761   +20 30 26.58  .76553 1.5446 119.6 22.2 17.0 148
2026 07 27 17  23 32 15.707   +20 31 33.66  .76515 1.5444 119.6 22.2 18.0 148
2026 07 27 18  23 32 17.652   +20 32 40.75  .76478 1.5443 119.7 22.2 18.9 148
2026 07 27 19  23 32 19.594   +20 33 47.85  .76441 1.5441 119.7 22.2 19.9 149
2026 07 27 20  23 32 21.534   +20 34 54.97  .76404 1.5439 119.7 22.2 21.0 149
2026 07 27 21  23 32 23.471   +20 36 02.10  .76366 1.5438 119.7 22.2 22.0 149
2026 07 27 22  23 32 25.407   +20 37 09.24  .76329 1.5436 119.7 22.2 23.1 149
2026 07 27 23  23 32 27.340   +20 38 16.39  .76292 1.5434 119.8 22.2 24.1 149
2026 07 28 00  23 32 29.270   +20 39 23.56  .76255 1.5433 119.8 22.2 25.3 149
2026 07 28 01  23 32 31.199   +20 40 30.74  .76218 1.5431 119.8 22.2 26.4 149
2026 07 28 02  23 32 33.125   +20 41 37.93  .76181 1.5429 119.8 22.2 27.6 149
2026 07 28 03  23 32 35.049   +20 42 45.14  .76143 1.5427 119.8 22.2 28.7 149
2026 07 28 04  23 32 36.970   +20 43 52.35  .76106 1.5426 119.9 22.2 29.9 149
2026 07 28 05  23 32 38.890   +20 44 59.58  .76069 1.5424 119.9 22.2 31.2 149
2026 07 28 06  23 32 40.807   +20 46 06.83  .76032 1.5422 119.9 22.2 32.4 149
2026 07 28 07  23 32 42.721   +20 47 14.08  .75995 1.5421 119.9 22.2 33.7 149
2026 07 28 08  23 32 44.634   +20 48 21.35  .75958 1.5419 119.9 22.2 35.0 149
2026 07 28 09  23 32 46.544   +20 49 28.63  .75921 1.5417 119.9 22.2 36.3 149
2026 07 28 10  23 32 48.451   +20 50 35.93  .75884 1.5416 120.0 22.2 37.7 150
2026 07 28 11  23 32 50.357   +20 51 43.23  .75847 1.5414 120.0 22.2 39.1 150
2026 07 28 12  23 32 52.260   +20 52 50.55  .75810 1.5412 120.0 22.2 40.5 150
2026 07 28 13  23 32 54.161   +20 53 57.88  .75773 1.5411 120.0 22.2 41.9 150
2026 07 28 14  23 32 56.059   +20 55 05.22  .75736 1.5409 120.0 22.2 43.3 150
2026 07 28 15  23 32 57.955   +20 56 12.58  .75699 1.5407 120.1 22.1 44.8 150
2026 07 28 16  23 32 59.849   +20 57 19.95  .75662 1.5406 120.1 22.1 46.3 150
2026 07 28 17  23 33 01.741   +20 58 27.33  .75626 1.5404 120.1 22.1 47.8 150
2026 07 28 18  23 33 03.630   +20 59 34.72  .75589 1.5402 120.1 22.1 49.4 150